Hourly Weather Rumino

Today, 22 April, Thursday

Time Temperature Precipitation Wind Pressure Humidity
00:00 +5°C° 0 mm 3 mps 737 mmHg 88%
01:00 +4°C° 0 mm 3 mps 737 mmHg 90%
02:00 +4°C° 0 mm 3 mps 737 mmHg 92%
03:00 +4°C° 0 mm 3 mps 737 mmHg 91%
04:00 +3°C° 0 mm 3 mps 738 mmHg 91%
05:00 +3°C° 0 mm 3 mps 738 mmHg 91%
06:00 +5°C° 0 mm 3 mps 738 mmHg 86%
07:00 +6°C° 0 mm 4 mps 738 mmHg 81%
08:00 +8°C° 0 mm 4 mps 738 mmHg 76%
09:00 +10°C° 0.3 mm 4 mps 738 mmHg 71%
10:00 +12°C° 0.3 mm 5 mps 738 mmHg 66%
11:00 +13°C° 0.3 mm 5 mps 738 mmHg 60%
12:00 +13°C° 0.5 mm 6 mps 738 mmHg 59%
13:00 +14°C° 0.5 mm 6 mps 738 mmHg 58%
14:00 +14°C° 0.5 mm 7 mps 738 mmHg 57%
15:00 +13°C° 0.3 mm 6 mps 738 mmHg 60%
16:00 +13°C° 0.3 mm 6 mps 738 mmHg 62%
17:00 +11°C° 0.3 mm 6 mps 738 mmHg 64%
18:00 +10°C° 0.2 mm 5 mps 738 mmHg 71%
19:00 +8°C° 0.2 mm 4 mps 738 mmHg 79%
20:00 +8°C° 0.2 mm 3 mps 739 mmHg 87%
21:00 +7°C° 0 mm 3 mps 739 mmHg 87%
22:00 +7°C° 0 mm 2 mps 739 mmHg 87%
23:00 +6°C° 0 mm 2 mps 738 mmHg 87%

Tomorrow, 23 April, Friday

Time Temperature Precipitation Wind Pressure Humidity
00:00 +6°C° 0 mm 2 mps 738 mmHg 85%
01:00 +6°C° 0 mm 2 mps 738 mmHg 83%
02:00 +5°C° 0 mm 2 mps 739 mmHg 80%
03:00 +4°C° 0 mm 3 mps 739 mmHg 80%
04:00 +4°C° 0 mm 3 mps 739 mmHg 80%
05:00 +3°C° 0 mm 3 mps 739 mmHg 80%
06:00 +4°C° 0 mm 4 mps 739 mmHg 76%
07:00 +4°C° 0 mm 4 mps 739 mmHg 72%
08:00 +5°C° 0 mm 5 mps 739 mmHg 68%
09:00 +5°C° 0 mm 5 mps 740 mmHg 63%
10:00 +4°C° 0 mm 6 mps 740 mmHg 58%
11:00 +5°C° 0 mm 6 mps 740 mmHg 53%
12:00 +5°C° 0 mm 6 mps 740 mmHg 53%
13:00 +5°C° 0 mm 6 mps 740 mmHg 53%
14:00 +5°C° 0 mm 6 mps 740 mmHg 53%
15:00 +6°C° 0.1 mm 5 mps 740 mmHg 55%
16:00 +6°C° 0.1 mm 5 mps 740 mmHg 56%
17:00 +5°C° 0.1 mm 5 mps 740 mmHg 57%
18:00 +4°C° 0 mm 4 mps 740 mmHg 64%
19:00 +3°C° 0 mm 3 mps 740 mmHg 70%
20:00 +3°C° 0 mm 2 mps 740 mmHg 76%
21:00 +2°C° 0 mm 2 mps 740 mmHg 78%
22:00 +1°C° 0 mm 3 mps 740 mmHg 80%
23:00 0°C° 0 mm 3 mps 740 mmHg 81%

Day after tomorrow, 24 April, Saturday

Time Temperature Precipitation Wind Pressure Humidity
00:00 0°C° 0 mm 3 mps 740 mmHg 83%
01:00 -1°C° 0 mm 3 mps 740 mmHg 84%
02:00 -1°C° 0 mm 3 mps 739 mmHg 86%
03:00 -2°C° 0 mm 3 mps 739 mmHg 88%
04:00 -2°C° 0 mm 3 mps 739 mmHg 90%
05:00 -2°C° 0 mm 3 mps 739 mmHg 92%
06:00 -1°C° 0 mm 3 mps 739 mmHg 84%
07:00 -1°C° 0 mm 4 mps 739 mmHg 76%
08:00 +1°C° 0 mm 4 mps 740 mmHg 68%
09:00 +1°C° 0 mm 5 mps 740 mmHg 67%
10:00 +1°C° 0 mm 5 mps 740 mmHg 65%
11:00 +2°C° 0 mm 6 mps 740 mmHg 64%
12:00 +2°C° 0.2 mm 6 mps 740 mmHg 63%
13:00 +3°C° 0.2 mm 6 mps 740 mmHg 62%
14:00 +3°C° 0.2 mm 7 mps 740 mmHg 61%
15:00 +3°C° 0.2 mm 6 mps 740 mmHg 63%
16:00 +3°C° 0.2 mm 6 mps 740 mmHg 65%
17:00 +3°C° 0.2 mm 5 mps 740 mmHg 66%
18:00 +2°C° 0.1 mm 5 mps 740 mmHg 71%
19:00 +1°C° 0.1 mm 4 mps 740 mmHg 76%
20:00 +1°C° 0.1 mm 3 mps 740 mmHg 81%
21:00 +1°C° 0 mm 3 mps 740 mmHg 83%
22:00 -1°C° 0 mm 4 mps 740 mmHg 85%
23:00 -1°C° 0 mm 4 mps 739 mmHg 87%

25 April, Sunday

Time Temperature Precipitation Wind Pressure Humidity
00:00 -2°C° 0 mm 4 mps 739 mmHg 87%
01:00 -2°C° 0 mm 4 mps 739 mmHg 87%
02:00 -2°C° 0 mm 5 mps 739 mmHg 87%
03:00 -4°C° 0 mm 5 mps 739 mmHg 89%
04:00 -4°C° 0 mm 5 mps 739 mmHg 90%
05:00 -4°C° 0 mm 5 mps 739 mmHg 91%
06:00 -2°C° 0.1 mm 5 mps 739 mmHg 87%
07:00 -2°C° 0.1 mm 6 mps 739 mmHg 83%
08:00 -1°C° 0.1 mm 6 mps 739 mmHg 79%
09:00 -1°C° 0.1 mm 6 mps 739 mmHg 75%
10:00 +1°C° 0.1 mm 6 mps 739 mmHg 72%
11:00 +1°C° 0.1 mm 6 mps 740 mmHg 68%
12:00 +2°C° 0.2 mm 6 mps 740 mmHg 66%
13:00 +2°C° 0.2 mm 7 mps 740 mmHg 65%
14:00 +3°C° 0.2 mm 7 mps 740 mmHg 63%
15:00 +2°C° 0.2 mm 7 mps 740 mmHg 65%
16:00 +2°C° 0.2 mm 6 mps 740 mmHg 67%
17:00 +2°C° 0.2 mm 6 mps 740 mmHg 69%
18:00 +1°C° 0 mm 5 mps 740 mmHg 73%
19:00 0°C° 0 mm 4 mps 740 mmHg 76%
20:00 -1°C° 0 mm 4 mps 740 mmHg 80%
21:00 -1°C° 0 mm 4 mps 740 mmHg 83%
22:00 -2°C° 0 mm 4 mps 740 mmHg 85%
23:00 -2°C° 0 mm 3 mps 740 mmHg 88%

26 April, Monday

Time Temperature Precipitation Wind Pressure Humidity
00:00 -2°C° 0 mm 3 mps 740 mmHg 89%
01:00 -2°C° 0 mm 3 mps 740 mmHg 90%
02:00 -2°C° 0 mm 3 mps 740 mmHg 91%
03:00 -3°C° 0 mm 4 mps 740 mmHg 91%
04:00 -3°C° 0 mm 4 mps 740 mmHg 91%
05:00 -3°C° 0 mm 4 mps 740 mmHg 90%
06:00 -3°C° 0 mm 4 mps 741 mmHg 85%
07:00 -4°C° 0 mm 5 mps 741 mmHg 80%
08:00 -2°C° 0 mm 5 mps 741 mmHg 75%
09:00 -1°C° 0 mm 5 mps 741 mmHg 68%
10:00 0°C° 0 mm 5 mps 741 mmHg 62%
11:00 +1°C° 0 mm 5 mps 741 mmHg 56%
12:00 +2°C° 0.1 mm 5 mps 741 mmHg 54%
13:00 +2°C° 0.1 mm 5 mps 741 mmHg 52%
14:00 +3°C° 0.1 mm 5 mps 741 mmHg 50%
15:00 +4°C° 0.1 mm 4 mps 741 mmHg 53%
16:00 +4°C° 0.1 mm 4 mps 741 mmHg 55%
17:00 +4°C° 0.1 mm 4 mps 741 mmHg 57%
18:00 +1°C° 0 mm 4 mps 741 mmHg 64%
19:00 +1°C° 0 mm 3 mps 741 mmHg 70%
20:00 0°C° 0 mm 3 mps 741 mmHg 77%
21:00 -1°C° 0 mm 3 mps 741 mmHg 77%
22:00 -1°C° 0 mm 3 mps 741 mmHg 77%
23:00 -1°C° 0 mm 3 mps 741 mmHg 77%

27 April, Tuesday

Time Temperature Precipitation Wind Pressure Humidity
00:00 -1°C° 0 mm 3 mps 741 mmHg 78%
01:00 -1°C° 0 mm 3 mps 741 mmHg 79%
02:00 -2°C° 0 mm 4 mps 741 mmHg 80%
03:00 -1°C° 0 mm 3 mps 741 mmHg 82%
04:00 -1°C° 0 mm 3 mps 741 mmHg 85%
05:00 -1°C° 0 mm 3 mps 741 mmHg 87%
06:00 -1°C° 0 mm 4 mps 741 mmHg 82%
07:00 0°C° 0 mm 4 mps 741 mmHg 76%
08:00 +3°C° 0 mm 4 mps 742 mmHg 71%
09:00 +4°C° 0 mm 4 mps 742 mmHg 68%
10:00 +5°C° 0 mm 4 mps 742 mmHg 64%
11:00 +6°C° 0 mm 4 mps 742 mmHg 61%
12:00 +6°C° 0 mm 4 mps 742 mmHg 61%
13:00 +7°C° 0 mm 3 mps 742 mmHg 62%
14:00 +7°C° 0 mm 3 mps 742 mmHg 63%
15:00 +7°C° 0 mm 2 mps 742 mmHg 62%
16:00 +7°C° 0 mm 2 mps 742 mmHg 62%
17:00 +9°C° 0 mm 1 mps 743 mmHg 62%
18:00 +8°C° 0 mm 1 mps 743 mmHg 65%
19:00 +7°C° 0 mm 1 mps 743 mmHg 69%
20:00 +6°C° 0 mm 1 mps 743 mmHg 73%
21:00 +5°C° 0 mm 2 mps 743 mmHg 74%
22:00 +5°C° 0 mm 2 mps 743 mmHg 75%
23:00 +5°C° 0 mm 2 mps 743 mmHg 76%
Show more